Tracking 35334 objects as of 12-Sep-2026
HD Live streaming from Space Station
objects crossing your sky now

TOPO 1

Track TOPO 1 now!
10-day predictions
TOPO 1 is classified as:


NORAD ID: 4363
Int'l Code: 1970-025B
Launch date: April 8, 1970
Source: United States (US)
Launch site: AIR FORCE WESTERN TEST RANGE (AFWTR)
Your satellite tracking list
Your tracking list is empty




NASA's NSSDC Master Catalog

Two Line Element Set (TLE):
1 04363U 70025B   26255.19498299 -.00000018  00000-0  43029-4 0  9993
2 04363  99.8800 167.8606 0002426 127.3697  33.2547 13.46701973772905
Source of the keplerian elements: AFSPC